Simultaneous Nadir Overpasses (SNOs) Predictions

Prediction of SNOs between GOES-16 and METOP-A Satellite Orbit:

Table of predicted SNOs for the next 14.0 days since TLE Epoch: 8/7/2021
Index Date Time (GOES-16) GOES-16 Lat,Lon METOP-A Lat,Lon Distance(km) Time Diff (sec)
1 08/08/2021 01:16:54 0.04, -75.22 -0.62, -78.33 353.55 80
2 08/09/2021 00:53:34 0.06, -75.23 0.46, -73.35 213.97 80
3 08/10/2021 13:15:05 -0.04, -75.27 0.52, -77.95 305.51 80
4 08/11/2021 12:51:45 -0.06, -75.28 -0.56, -72.97 262.38 80
5 08/13/2021 01:13:24 0.04, -75.27 -0.49, -77.60 266.33 80
6 08/14/2021 00:50:05 0.06, -75.28 0.65, -72.63 301.88 80
7 08/15/2021 13:11:35 -0.04, -75.33 0.39, -77.23 216.68 80
8 08/16/2021 12:48:15 -0.05, -75.34 -0.75, -72.26 351.57 80
9 08/18/2021 01:09:55 0.03, -75.34 -0.30, -76.89 176.73 80
10 08/19/2021 00:46:34 0.05, -75.35 0.79, -71.91 391.66 80
11 08/20/2021 13:08:06 -0.03, -75.40 0.19, -76.52 126.30 80
